[[{"header":{"parameterUnit":"m.s-1","parameterCategory":2,"la1":30.2991,"la2":30.254,"lo1":-89.0895,"lo2":-89.0444,"dy":0.0017,"dx":0.0017,"nx":28,"ny":28,"refTime":"2025-03-05T03:00:00:Z","depth":"0","parameterNumber":2,"parameterNumberName":"U-component_of_CURRENTS"},"data":[0,0,0,0,0,0,0,0,0,0,0,0,0,0,0,0,0,0,0,0,0,0,0,0,0,0,0,0,0,0,0,0,0,0,0,0,0,0,0,0,0,0,0,0,0,0,0,0,0,0,0,0,0,0,0,0,0,0,-0.2775,-0.2776,0,-0.2838,-0.2839,-0.2839,-0.2803,-0.2801,-0.2799,-0.2797,-0.2934,-0.2939,-0.2944,0,0,0,0,0,0,0,0,0,0,0,0,0,-0.2701,-0.2702,-0.2775,-0.2776,-0.2777,-0.2838,-0.2839,-0.2839,-0.2803,-0.2801,-0.2799,-0.2797,-0.2932,-0.2938,-0.2945,0,0,0,0,0,0,0,0,0,0,0,0,0,-0.2744,-0.2702,-0.2775,-0.2767,-0.2767,-0.2838,-0.2839,-0.284,-0.2803,-0.2801,-0.2798,-0.2796,-0.293,-0.2938,-0.2946,-0.3045,0,0,-0.297,-0.2973,0,0,0,0,0,0,0,0,-0.2742,-0.2747,-0.2767,-0.2768,-0.2768,-0.2811,-0.2862,-0.2912,-0.2804,-0.2789,-0.2797,-0.2794,-0.2902,-0.2912,-0.2927,-0.3051,-0.3057,-0.297,-0.2975,-0.2978,-0.2981,0,0,0,0,0,0,0,-0.2738,-0.2744,-0.2799,-0.2768,-0.2769,-0.2786,-0.2789,-0.2872,-0.286,-0.279,-0.2787,-0.2797,-0.2902,-0.292,-0.293,-0.3059,-0.297,-0.2977,-0.2982,-0.2985,-0.3423,-0.343,0,0,0,0,0,0,-0.2732,-0.2741,-0.2797,-0.2801,-0.2749,-0.2789,-0.2792,-0.2799,-0.2857,-0.2863,-0.2799,-0.2795,-0.2908,-0.2921,-0.2935,-0.3095,-0.2978,-0.2986,-0.299,-0.3416,-0.3424,-0.3432,0,0,0,0,0,0,-0.273,-0.2736,-0.2795,-0.2773,-0.2782,-0.2793,-0.2801,-0.2801,-0.2804,-0.2863,-0.287,-0.2799,-0.2906,-0.2924,-0.3046,-0.3098,-0.2989,-0.2996,-0.3408,-0.3419,-0.3428,-0.3391,0,0,0,0,0,0,-0.2727,-0.2735,-0.2735,-0.2773,-0.2783,-0.2836,-0.2803,-0.2804,-0.2815,-0.281,-0.2867,-0.2877,-0.2905,-0.3034,-0.3053,-0.3107,-0.3002,-0.3399,-0.3413,-0.3425,-0.3384,-0.3399,-0.3412,0,0,0,0,0,-0.2725,-0.2737,-0.2734,-0.2741,-0.2783,-0.2837,-0.2845,-0.2843,-0.2817,-0.2833,-0.2899,-0.2874,-0.3132,-0.3045,-0.3067,-0.3123,-0.3393,-0.3409,-0.3424,-0.3377,-0.3396,-0.3412,0,0,0,0,0,0,-0.27,-0.2736,-0.2733,-0.2753,-0.2791,-0.2831,-0.2842,-0.2846,-0.2906,-0.29,-0.2944,-0.2963,-0.3089,-0.3148,-0.3052,-0.3308,-0.3268,-0.3288,-0.3226,-0.3244,-0.3258,-0.3179,-0.3009,0,0,0,0,0,-0.2698,-0.2712,-0.2756,-0.277,-0.2789,-0.2815,-0.2833,-0.2839,-0.2897,-0.2914,-0.2961,-0.3059,-0.3179,-0.3235,-0.3333,-0.3465,-0.3397,-0.3537,-0.3551,-0.3561,-0.3526,-0.3431,-0.3427,-0.3483,-0.3483,-0.3483,0,0,-0.2691,-0.2712,-0.2718,-0.2765,-0.2788,-0.2841,-0.2819,-0.2851,-0.2909,-0.293,-0.302,-0.3092,-0.3229,-0.337,-0.3436,-0.3416,-0.3532,-0.3581,-0.3587,-0.3546,-0.3446,-0.3438,-0.343,-0.3494,-0.3492,-0.349,0,0,-0.2698,-0.2705,-0.2726,-0.2767,-0.2811,-0.2845,-0.2854,-0.2903,-0.2937,-0.3053,-0.3094,-0.3171,-0.3368,-0.3435,-0.3513,-0.3677,-0.3598,-0.3768,-0.377,-0.3679,-0.3668,-0.3657,-0.3601,-0.3585,-0.3783,-0.3783,-0.3783,0,-0.2688,-0.2718,-0.2743,-0.2787,-0.2823,-0.285,-0.2898,-0.2962,-0.3046,-0.3087,-0.3088,-0.3308,-0.3385,-0.3541,-0.3615,-0.3686,-0.3643,-0.3666,-0.3676,-0.3665,-0.3654,-0.3598,-0.358,-0.3784,-0.3784,-0.3783,-0.3783,0,-0.272,-0.2751,-0.277,-0.2836,-0.2886,-0.2927,-0.3018,-0.3071,-0.3114,-0.3166,-0.3292,-0.3383,-0.3492,-0.3573,-0.365,-0.3684,-0.3682,-0.3672,-0.3578,-0.3641,-0.3586,-0.3567,-0.3784,-0.3784,-0.3784,-0.3784,0,0,-0.2675,-0.2772,-0.2775,-0.2816,-0.291,-0.2956,-0.3069,-0.317,-0.3209,-0.3302,-0.3338,-0.3544,-0.3524,-0.3614,-0.3689,-0.3643,-0.3549,-0.3643,-0.3638,-0.3492,-0.3366,-0.3289,-0.3261,-0.352,-0.3516,-0.3513,-0.3365,0,-0.2687,-0.2766,-0.282,-0.2908,-0.296,-0.3035,-0.3129,-0.3226,-0.3298,-0.3341,-0.342,-0.3494,-0.3574,-0.3596,-0.3569,-0.3557,-0.3498,-0.3591,-0.3411,-0.3406,-0.3245,-0.3235,-0.3101,-0.2949,-0.3347,-0.3344,-0.3341,0,-0.2696,-0.2749,-0.2831,-0.2938,-0.2965,-0.3027,-0.3135,-0.3223,-0.3316,-0.3358,-0.341,-0.3452,-0.3482,-0.3478,-0.342,-0.3479,-0.3418,-0.3379,-0.3371,-0.3277,-0.3291,-0.2958,-0.2901,-0.2892,-0.3313,-0.3315,-0.3317,0,-0.2646,-0.2757,-0.2817,-0.2857,-0.2987,-0.3036,-0.3101,-0.3212,-0.3272,-0.3325,-0.3322,-0.3373,-0.3355,-0.3294,-0.3286,-0.3327,-0.3145,-0.3176,-0.3046,-0.3042,-0.2878,-0.2865,-0.2694,-0.3042,-0.3042,-0.3042,-0.3043,0,-0.2638,-0.268,-0.2793,-0.2826,-0.2887,-0.2993,-0.3049,-0.3124,-0.3186,-0.3209,-0.3295,-0.3285,-0.3291,-0.3237,-0.3214,-0.3078,-0.308,-0.3005,-0.2972,-0.288,-0.2869,-0.2817,-0.2883,-0.3037,-0.3038,-0.3039,-0.304,0,-0.2569,-0.2647,-0.2714,-0.2833,-0.2866,-0.2904,-0.3004,-0.3028,-0.3105,-0.3111,-0.3115,-0.3178,-0.3103,-0.3106,-0.2985,-0.2959,-0.279,-0.2792,-0.2712,-0.2669,-0.2538,-0.261,-0.242,-0.2343,-0.2598,-0.2594,-0.2592,0,-0.2537,-0.2565,-0.2682,-0.2702,-0.2748,-0.2816,-0.2845,-0.2964,-0.2987,-0.3045,-0.3019,-0.2986,-0.2947,-0.2788,-0.2695,-0.2579,-0.2633,-0.2403,-0.2439,-0.2467,-0.2524,-0.2597,-0.2553,-0.2239,-0.2234,-0.2229,-0.2226,0,-0.2456,-0.2496,-0.2543,-0.2588,-0.2626,-0.2671,-0.2725,-0.274,-0.2845,-0.2854,-0.2838,-0.2806,-0.2676,-0.2508,-0.2378,-0.2303,-0.235,-0.2307,-0.2321,-0.2198,-0.2275,-0.2206,-0.2454,-0.2186,-0.219,-0.2193,-0.2195,-0.2197,-0.2365,-0.237,-0.2423,-0.245,-0.2486,-0.2492,-0.2464,-0.2525,-0.2536,-0.2505,-0.2594,-0.2501,-0.24,-0.219,-0.2096,-0.1916,-0.2036,-0.1878,-0.1957,-0.2024,-0.1953,-0.2134,-0.1846,-0.1848,-0.1849,-0.1851,-0.1852,0,-0.2236,-0.2253,-0.2272,-0.2296,-0.2257,-0.2332,-0.2343,-0.2277,-0.2217,-0.2249,-0.2214,-0.2155,-0.1971,-0.1896,-0.1724,-0.1621,-0.1585,-0.1598,-0.1667,-0.163,-0.1737,-0.1724,-0.1412,-0.1412,-0.1412,-0.1412,-0.1412,-0.1412,-0.2168,-0.2135,-0.2147,-0.2052,-0.2049,-0.1936,-0.1899,-0.1833,-0.182,-0.1741,-0.1741,-0.1795,-0.1787,-0.1852,-0.1663,-0.1543,-0.1532,-0.1468,-0.1531,-0.164,-0.1673,-0.1706,-0.1704,-0.1393,-0.1393,-0.1325,-0.1325,-0.1325]},{"header":{"parameterUnit":"m.s-1","parameterCategory":2,"la1":30.2991,"la2":30.254,"lo1":-89.0895,"lo2":-89.0444,"dy":0.0017,"dx":0.0017,"nx":28,"ny":28,"refTime":"2025-03-05T03:00:00:Z","depth":"0","parameterNumber":3,"parameterNumberName":"V-component_of_CURRENTS"},"data":[0,0,0,0,0,0,0,0,0,0,0,0,0,0,0,0,0,0,0,0,0,0,0,0,0,0,0,0,0,0,0,0,0,0,0,0,0,0,0,0,0,0,0,0,0,0,0,0,0,0,0,0,0,0,0,0,0,0,-0.0324,-0.0324,0,-0.0249,-0.0248,-0.0247,-0.0183,-0.0182,-0.0181,-0.0181,0.0,0.0004,0.0009,0,0,0,0,0,0,0,0,0,0,0,0,0,-0.036,-0.0359,-0.0324,-0.0323,-0.0323,-0.0249,-0.0248,-0.0247,-0.0183,-0.0182,-0.0181,-0.0181,-0.0001,0.0004,0.0009,0,0,0,0,0,0,0,0,0,0,0,0,0,-0.0319,-0.0359,-0.0324,-0.0283,-0.0279,-0.0249,-0.0248,-0.0247,-0.0183,-0.0182,-0.0181,-0.018,-0.0003,0.0003,0.001,0.0032,0,0,0.0029,0.0032,0,0,0,0,0,0,0,0,-0.0321,-0.0318,-0.029,-0.0286,-0.0281,-0.0226,-0.0194,-0.0149,-0.0183,-0.0218,-0.0181,-0.018,-0.0067,-0.0055,-0.0043,0.004,0.0048,0.003,0.0034,0.0037,0.0038,0,0,0,0,0,0,0,-0.0324,-0.032,-0.0293,-0.0289,-0.0284,-0.025,-0.0244,-0.0185,-0.0145,-0.0214,-0.021,-0.0204,-0.0064,-0.0049,-0.0037,0.0051,0.003,0.0035,0.0039,0.0042,0.0319,0.0322,0,0,0,0,0,0,-0.0341,-0.0323,-0.0295,-0.0291,-0.0301,-0.0251,-0.0243,-0.0243,-0.0148,-0.0134,-0.0205,-0.0202,-0.006,-0.0045,-0.0031,0.0069,0.0037,0.0043,0.0046,0.0316,0.032,0.0324,0,0,0,0,0,0,-0.0342,-0.0339,-0.0298,-0.0306,-0.0299,-0.0251,-0.0251,-0.0242,-0.0227,-0.0142,-0.0126,-0.02,-0.0059,-0.004,0.0012,0.0074,0.0045,0.0051,0.0311,0.0317,0.0322,0.0226,0,0,0,0,0,0,-0.0343,-0.034,-0.0345,-0.0308,-0.0299,-0.0295,-0.0252,-0.0241,-0.0226,-0.022,-0.0132,-0.0115,-0.0057,0.0002,0.0018,0.0083,0.0056,0.0307,0.0314,0.032,0.0225,0.0228,0.023,0,0,0,0,0,-0.0345,-0.0361,-0.0346,-0.0343,-0.0308,-0.0296,-0.0289,-0.025,-0.0227,-0.0231,-0.017,-0.0117,0.006,0.0006,0.0026,0.0094,0.0304,0.0312,0.0319,0.0224,0.0227,0.023,0,0,0,0,0,0,-0.0379,-0.0355,-0.0338,-0.0346,-0.0328,-0.0286,-0.0284,-0.0258,-0.0215,-0.0204,-0.0122,-0.0101,-0.0015,0.0052,-0.0007,0.0206,0.0212,0.0224,0.0133,0.0137,0.0139,0.0135,0.0062,0,0,0,0,0,-0.0391,-0.0395,-0.0367,-0.0373,-0.0367,-0.0327,-0.0316,-0.0293,-0.0251,-0.0231,-0.0172,-0.0071,0.0035,0.0085,0.017,0.0249,0.0261,0.033,0.0332,0.0333,0.0351,0.0363,0.0364,0.0349,0.0349,0.0349,0,0,-0.0405,-0.0393,-0.0394,-0.0381,-0.036,-0.0369,-0.0318,-0.0311,-0.0306,-0.0216,-0.0189,-0.0083,0.0056,0.0154,0.0206,0.0212,0.0345,0.0343,0.0341,0.036,0.0371,0.0371,0.0371,0.0355,0.0354,0.0353,0,0,-0.0446,-0.0426,-0.0448,-0.0441,-0.0423,-0.04,-0.0404,-0.0369,-0.0339,-0.0313,-0.0202,-0.0062,0.0027,0.0184,0.0268,0.0344,0.0346,0.0384,0.0395,0.0404,0.0403,0.0402,0.0391,0.0391,0.0395,0.0395,0.0394,0,-0.0465,-0.0488,-0.0453,-0.0475,-0.0476,-0.0423,-0.0451,-0.0415,-0.0366,-0.032,-0.032,-0.0066,0.0062,0.0257,0.0312,0.0352,0.0317,0.0351,0.0396,0.0396,0.0397,0.0387,0.0387,0.0391,0.0391,0.0392,0.0392,0,-0.0523,-0.0542,-0.0555,-0.0565,-0.0563,-0.0576,-0.0533,-0.0514,-0.0475,-0.0408,-0.0255,-0.0086,0.0079,0.0178,0.0267,0.0405,0.0361,0.0371,0.0358,0.0391,0.0381,0.0382,0.0386,0.0387,0.0388,0.0389,0,0,-0.0566,-0.0593,-0.0599,-0.0623,-0.0612,-0.062,-0.0606,-0.0555,-0.0526,-0.0421,-0.0363,-0.0073,0.0041,0.0154,0.0317,0.0388,0.0398,0.0378,0.038,0.0315,0.0356,0.0429,0.0438,0.0353,0.0354,0.0354,0.0332,0,-0.0624,-0.0695,-0.0683,-0.0743,-0.0777,-0.0727,-0.0719,-0.0654,-0.0588,-0.0523,-0.0279,-0.0155,0.0022,0.0111,0.0214,0.0345,0.04,0.0401,0.0385,0.0386,0.0402,0.0444,0.0505,0.0499,0.0334,0.0334,0.0335,0,-0.069,-0.0729,-0.0803,-0.0834,-0.084,-0.0859,-0.083,-0.0812,-0.0675,-0.0618,-0.0438,-0.0295,-0.0062,0.0016,0.0237,0.0192,0.0283,0.0369,0.0368,0.0479,0.0465,0.0456,0.0508,0.0727,0.0337,0.0337,0.0337,0,-0.0753,-0.0813,-0.0877,-0.089,-0.091,-0.0918,-0.0915,-0.0821,-0.0792,-0.067,-0.0635,-0.0395,-0.0275,-0.0142,0.0127,0.012,0.0284,0.0283,0.0441,0.0444,0.053,0.0541,0.0761,0.0397,0.0397,0.0397,0.0397,0,-0.0826,-0.0877,-0.0913,-0.095,-0.1009,-0.0989,-0.1007,-0.0969,-0.0895,-0.0846,-0.0668,-0.058,-0.0324,-0.0167,0.0023,0.0257,0.0199,0.046,0.0459,0.0502,0.0511,0.0736,0.0822,0.0397,0.0397,0.0397,0.0397,0,-0.0893,-0.0914,-0.0995,-0.1035,-0.1047,-0.109,-0.1098,-0.1096,-0.1021,-0.0975,-0.0943,-0.0743,-0.0543,-0.0271,-0.004,0.0145,0.0481,0.0439,0.0481,0.049,0.0825,0.0902,0.1116,0.1248,0.0555,0.0557,0.0558,0,-0.0935,-0.0982,-0.1067,-0.1116,-0.114,-0.1187,-0.121,-0.1166,-0.1159,-0.1047,-0.103,-0.0829,-0.0645,-0.0273,0.0067,0.0367,0.0574,0.0598,0.0664,0.0884,0.0966,0.1023,0.1123,0.0714,0.0717,0.072,0.0721,0,-0.1011,-0.1038,-0.1105,-0.1209,-0.1264,-0.1319,-0.1346,-0.1363,-0.1294,-0.1235,-0.1128,-0.0985,-0.0582,-0.0189,0.0236,0.0437,0.077,0.0653,0.0871,0.113,0.1215,0.1326,0.0668,0.0742,0.074,0.0738,0.0737,0.0736,-0.1056,-0.1125,-0.1208,-0.1303,-0.1371,-0.1435,-0.1467,-0.1466,-0.1448,-0.1333,-0.1201,-0.0935,-0.0361,0.0253,0.0483,0.1007,0.096,0.1173,0.1243,0.1277,0.1456,0.0854,0.0943,0.0942,0.0942,0.0941,0.094,0,-0.111,-0.1186,-0.1289,-0.1402,-0.1484,-0.1492,-0.1539,-0.1528,-0.1499,-0.1335,-0.1175,-0.0537,0.0038,0.0581,0.1297,0.1588,0.1663,0.1733,0.1841,0.1912,0.137,0.1435,0.1648,0.1648,0.1648,0.1647,0.1647,0.1647,-0.1141,-0.1251,-0.131,-0.1464,-0.1534,-0.1596,-0.1615,-0.1568,-0.1446,-0.1124,-0.0767,-0.0486,0.0299,0.1415,0.2088,0.2159,0.2419,0.2389,0.2522,0.2166,0.2119,0.2075,0.2162,0.2524,0.2525,0.3066,0.3072,0.3076]}],[{"header":{"parameterUnit":"m.s-1","parameterCategory":2,"la1":30.2991,"la2":30.254,"lo1":-89.0895,"lo2":-89.0444,"dy":0.0017,"dx":0.0017,"nx":28,"ny":28,"refTime":"2025-03-05T03:00:00:Z","depth":"2","parameterNumber":2,"parameterNumberName":"U-component_of_CURRENTS"},"data":[0,0,0,0,0,0,0,0,0,0,0,0,0,0,0,0,0,0,0,0,0,0,0,0,0,0,0,0,0,0,0,0,0,0,0,0,0,0,0,0,0,0,0,0,0,0,0,0,0,0,0,0,0,0,0,0,0,0,-0.2623,-0.2623,0,-0.2695,-0.2696,-0.2697,-0.2674,-0.2672,-0.2671,-0.267,-0.2719,-0.2721,-0.2724,0,0,0,0,0,0,0,0,0,0,0,0,0,-0.2523,-0.2524,-0.2622,-0.2623,-0.2624,-0.2695,-0.2696,-0.2697,-0.2674,-0.2672,-0.2671,-0.2669,-0.2718,-0.2721,-0.2724,0,0,0,0,0,0,0,0,0,0,0,0,0,-0.2577,-0.2525,-0.2622,-0.2622,-0.2623,-0.2695,-0.2696,-0.2697,-0.2674,-0.2672,-0.267,-0.2668,-0.2717,-0.2721,-0.2725,-0.2793,0,0,-0.2737,-0.2739,0,0,0,0,0,0,0,0,-0.2574,-0.258,-0.2621,-0.2623,-0.2624,-0.2674,-0.2679,-0.2728,-0.2675,-0.2654,-0.267,-0.2667,-0.2704,-0.2709,-0.2726,-0.2795,-0.2797,-0.2737,-0.274,-0.2741,-0.2742,0,0,0,0,0,0,0,-0.257,-0.2577,-0.265,-0.2623,-0.2624,-0.2639,-0.2644,-0.2689,-0.2689,-0.2655,-0.2654,-0.2665,-0.2704,-0.2722,-0.2727,-0.2798,-0.2737,-0.2741,-0.2743,-0.2745,-0.2904,-0.2906,0,0,0,0,0,0,-0.2563,-0.2574,-0.2648,-0.2652,-0.2594,-0.2643,-0.2648,-0.2659,-0.2689,-0.2692,-0.2667,-0.2664,-0.2717,-0.2723,-0.2729,-0.2781,-0.2741,-0.2745,-0.2747,-0.2902,-0.2904,-0.2906,0,0,0,0,0,0,-0.2561,-0.2569,-0.2645,-0.2615,-0.2626,-0.2646,-0.266,-0.2662,-0.2671,-0.2698,-0.2699,-0.2673,-0.2715,-0.2723,-0.278,-0.2784,-0.2747,-0.275,-0.29,-0.2903,-0.2905,-0.2906,0,0,0,0,0,0,-0.2557,-0.2568,-0.2572,-0.2615,-0.2628,-0.2689,-0.2662,-0.2665,-0.2682,-0.2679,-0.2705,-0.2707,-0.2714,-0.2774,-0.2784,-0.2789,-0.2754,-0.2898,-0.2901,-0.2904,-0.2903,-0.2908,-0.2912,0,0,0,0,0,-0.2554,-0.2571,-0.2572,-0.2581,-0.2634,-0.269,-0.2699,-0.2705,-0.2685,-0.2702,-0.2724,-0.2706,-0.2802,-0.278,-0.2791,-0.2796,-0.2896,-0.29,-0.2904,-0.2901,-0.2907,-0.2912,0,0,0,0,0,0,-0.2528,-0.2572,-0.2574,-0.2602,-0.2643,-0.2686,-0.2702,-0.2709,-0.2741,-0.2731,-0.2745,-0.2752,-0.2798,-0.2813,-0.2788,-0.2855,-0.2841,-0.2847,-0.2835,-0.284,-0.2845,-0.2835,-0.2757,0,0,0,0,0,-0.2528,-0.2548,-0.2597,-0.2618,-0.2638,-0.267,-0.2691,-0.2701,-0.2737,-0.2746,-0.277,-0.2796,-0.2829,-0.2845,-0.2882,-0.2932,-0.2911,-0.294,-0.2945,-0.2948,-0.295,-0.2936,-0.2938,-0.292,-0.292,-0.292,0,0,-0.2522,-0.2549,-0.2559,-0.2613,-0.264,-0.2688,-0.2677,-0.2713,-0.2748,-0.2751,-0.2802,-0.2819,-0.285,-0.2897,-0.2917,-0.2905,-0.2941,-0.2953,-0.2956,-0.2956,-0.294,-0.2941,-0.2942,-0.2923,-0.2922,-0.2922,0,0,-0.2531,-0.2548,-0.2572,-0.2613,-0.2662,-0.2694,-0.2705,-0.2758,-0.2771,-0.2839,-0.2834,-0.2856,-0.2929,-0.2934,-0.2949,-0.3007,-0.2968,-0.3017,-0.3026,-0.3012,-0.3012,-0.3012,-0.2967,-0.2963,-0.3014,-0.3014,-0.3014,0,-0.2523,-0.2558,-0.259,-0.2633,-0.2665,-0.2698,-0.2741,-0.2778,-0.2841,-0.2852,-0.2856,-0.2925,-0.2944,-0.2973,-0.2991,-0.3011,-0.2991,-0.2996,-0.3013,-0.3013,-0.3013,-0.2967,-0.2962,-0.3014,-0.3014,-0.3014,-0.3014,0,-0.2554,-0.2588,-0.2609,-0.2671,-0.2717,-0.2757,-0.2817,-0.2854,-0.2877,-0.2903,-0.2942,-0.2972,-0.3,-0.3009,-0.3024,-0.3032,-0.3012,-0.3018,-0.2987,-0.3014,-0.2964,-0.2959,-0.3015,-0.3015,-0.3015,-0.3015,0,0,-0.2516,-0.2611,-0.2615,-0.2648,-0.2736,-0.2775,-0.2841,-0.2899,-0.2918,-0.2969,-0.299,-0.3038,-0.3027,-0.3044,-0.3045,-0.3037,-0.3012,-0.3031,-0.303,-0.2964,-0.2957,-0.2861,-0.2846,-0.3018,-0.3018,-0.3018,-0.2913,0,-0.2525,-0.2598,-0.2649,-0.2721,-0.2766,-0.2824,-0.288,-0.2934,-0.2975,-0.3009,-0.3016,-0.3045,-0.3048,-0.3051,-0.3046,-0.303,-0.3004,-0.3038,-0.2961,-0.2958,-0.2852,-0.2839,-0.264,-0.2524,-0.2908,-0.2907,-0.2907,0,-0.2533,-0.2581,-0.265,-0.2738,-0.2761,-0.2811,-0.2882,-0.2939,-0.2993,-0.3018,-0.3038,-0.3052,-0.3052,-0.3054,-0.3013,-0.3036,-0.2998,-0.2976,-0.2972,-0.288,-0.2854,-0.2568,-0.2501,-0.2898,-0.2899,-0.2899,-0.29,0,-0.2478,-0.2578,-0.2626,-0.266,-0.277,-0.28,-0.2853,-0.2925,-0.2958,-0.3012,-0.3026,-0.3041,-0.3032,-0.3012,-0.2979,-0.2995,-0.2921,-0.2931,-0.28,-0.2791,-0.2605,-0.2581,-0.2889,-0.2889,-0.2889,-0.2889,-0.289,0,-0.2465,-0.2498,-0.26,-0.2624,-0.267,-0.2762,-0.2804,-0.2861,-0.2926,-0.2941,-0.3009,-0.3007,-0.3025,-0.2995,-0.2968,-0.2856,-0.2903,-0.2787,-0.2758,-0.2599,-0.2577,-0.2901,-0.2904,-0.2885,-0.2886,-0.2887,-0.2888,0,-0.2394,-0.2466,-0.2519,-0.2619,-0.2647,-0.2674,-0.2766,-0.2786,-0.2867,-0.2889,-0.2902,-0.2962,-0.2916,-0.2911,-0.286,-0.281,-0.2739,-0.2688,-0.2487,-0.2437,-0.2617,-0.2622,-0.2516,-0.2512,-0.2508,-0.2505,-0.2503,0,-0.2363,-0.2384,-0.2481,-0.2497,-0.2536,-0.2593,-0.2619,-0.2731,-0.2755,-0.2841,-0.2829,-0.283,-0.2788,-0.2687,-0.2598,-0.2495,-0.2614,-0.2268,-0.2266,-0.2596,-0.2579,-0.259,-0.2599,-0.2008,-0.2001,-0.1996,-0.1992,0,-0.2284,-0.2318,-0.2354,-0.2389,-0.2421,-0.246,-0.2511,-0.2528,-0.2638,-0.266,-0.2669,-0.2651,-0.2559,-0.2369,-0.2258,-0.2182,-0.2274,-0.2156,-0.2535,-0.2148,-0.2112,-0.2098,-0.2124,-0.1946,-0.195,-0.1954,-0.1956,-0.1958,-0.2202,-0.22,-0.2242,-0.2258,-0.2291,-0.2296,-0.2272,-0.2331,-0.2346,-0.2336,-0.2432,-0.2333,-0.2297,-0.2014,-0.1886,-0.1783,-0.1945,-0.187,-0.1888,-0.1911,-0.1886,-0.1847,-0.1624,-0.1627,-0.1629,-0.1631,-0.1633,0,-0.2085,-0.2093,-0.2101,-0.2115,-0.2081,-0.2151,-0.2163,-0.2106,-0.2055,-0.2079,-0.2054,-0.184,-0.1691,-0.1661,-0.1419,-0.1363,-0.136,-0.1311,-0.1323,-0.1369,-0.141,-0.1362,-0.0959,-0.0957,-0.0955,-0.0954,0,0,-0.2024,-0.1984,-0.1983,-0.1891,-0.189,-0.1795,-0.1763,-0.1706,-0.1684,-0.159,-0.1537,-0.1631,-0.1639,-0.1328,-0.1227,-0.106,-0.1208,-0.0996,-0.1536,-0.1598,-0.1637,-0.1727,-0.1704,0,0,0,0,0]},{"header":{"parameterUnit":"m.s-1","parameterCategory":2,"la1":30.2991,"la2":30.254,"lo1":-89.0895,"lo2":-89.0444,"dy":0.0017,"dx":0.0017,"nx":28,"ny":28,"refTime":"2025-03-05T03:00:00:Z","depth":"2","parameterNumber":3,"parameterNumberName":"V-component_of_CURRENTS"},"data":[0,0,0,0,0,0,0,0,0,0,0,0,0,0,0,0,0,0,0,0,0,0,0,0,0,0,0,0,0,0,0,0,0,0,0,0,0,0,0,0,0,0,0,0,0,0,0,0,0,0,0,0,0,0,0,0,0,0,-0.022,-0.022,0,-0.0154,-0.0153,-0.0153,-0.0092,-0.0091,-0.009,-0.009,0.0041,0.0043,0.0046,0,0,0,0,0,0,0,0,0,0,0,0,0,-0.0251,-0.0251,-0.022,-0.022,-0.0219,-0.0154,-0.0153,-0.0152,-0.0092,-0.0091,-0.009,-0.0089,0.004,0.0043,0.0046,0,0,0,0,0,0,0,0,0,0,0,0,0,-0.0216,-0.0251,-0.022,-0.0182,-0.0178,-0.0155,-0.0153,-0.0152,-0.0092,-0.0091,-0.009,-0.0089,0.0038,0.0043,0.0047,0.0054,0,0,0.006,0.0062,0,0,0,0,0,0,0,0,-0.0218,-0.0214,-0.0188,-0.0184,-0.018,-0.0131,-0.0116,-0.008,-0.0092,-0.0123,-0.009,-0.0089,-0.0012,-0.0004,0.0007,0.006,0.0066,0.006,0.0063,0.0065,0.0066,0,0,0,0,0,0,0,-0.022,-0.0217,-0.0193,-0.0187,-0.0182,-0.0153,-0.0147,-0.0109,-0.0072,-0.0121,-0.0116,-0.0111,-0.0009,0.0003,0.0011,0.0068,0.006,0.0064,0.0067,0.0068,0.0102,0.01,0,0,0,0,0,0,-0.0234,-0.0219,-0.0195,-0.0191,-0.0198,-0.0153,-0.0147,-0.0147,-0.0074,-0.0062,-0.0112,-0.0108,-0.0005,0.0006,0.0016,0.0008,0.0065,0.0069,0.0071,0.0103,0.0101,0.01,0,0,0,0,0,0,-0.0235,-0.0233,-0.0198,-0.0204,-0.0198,-0.0154,-0.0154,-0.0146,-0.0133,-0.0068,-0.0055,-0.0108,-0.0004,0.001,0.0034,0.0015,0.0071,0.0075,0.0105,0.0103,0.01,0.0006,0,0,0,0,0,0,-0.0236,-0.0234,-0.0239,-0.0205,-0.0198,-0.0198,-0.0155,-0.0145,-0.0132,-0.0127,-0.006,-0.0047,-0.0002,0.0027,0.0038,0.0021,0.0078,0.0108,0.0104,0.0101,0.0011,0.0001,-0.0008,0,0,0,0,0,-0.0238,-0.0254,-0.024,-0.0237,-0.0207,-0.0199,-0.0193,-0.0157,-0.0133,-0.014,-0.0098,-0.0049,0.0014,0.0029,0.0042,0.0027,0.0109,0.0105,0.0102,0.0016,0.0003,-0.0008,0,0,0,0,0,0,-0.027,-0.0248,-0.0232,-0.024,-0.0226,-0.019,-0.0189,-0.0166,-0.0138,-0.0128,-0.0064,-0.0049,-0.004,0.0002,0.0016,0.0023,0.0067,0.0066,-0.0003,-0.0014,-0.0024,-0.0017,0.0082,0,0,0,0,0,-0.0282,-0.0286,-0.0262,-0.0269,-0.0264,-0.0228,-0.0219,-0.0198,-0.0168,-0.0154,-0.011,-0.0069,-0.0047,-0.0024,0.0003,0.0016,0.0084,0.0011,0.0001,-0.0007,0.0005,0.0094,0.0094,0.0087,0.0087,0.0087,0,0,-0.0295,-0.0284,-0.0286,-0.0276,-0.0258,-0.0272,-0.022,-0.0216,-0.0225,-0.0144,-0.014,-0.0103,-0.0055,-0.0049,-0.0041,-0.0012,0.0022,-0.0012,-0.002,-0.0002,0.009,0.0091,0.0093,0.0084,0.0085,0.0085,0,0,-0.0336,-0.0317,-0.0339,-0.0335,-0.0321,-0.0304,-0.0308,-0.0278,-0.0261,-0.0256,-0.0208,-0.0179,-0.0141,-0.0107,-0.0087,-0.0134,-0.0041,-0.0134,-0.0163,-0.0079,-0.0076,-0.0073,-0.0014,-0.0005,-0.013,-0.013,-0.013,0,-0.0354,-0.0378,-0.0346,-0.037,-0.0375,-0.0326,-0.0358,-0.0339,-0.0306,-0.0286,-0.027,-0.0204,-0.0169,-0.0144,-0.0168,-0.0153,-0.0092,-0.0121,-0.0088,-0.0083,-0.0078,-0.0018,-0.0007,-0.0135,-0.0134,-0.0134,-0.0133,0,-0.0412,-0.0434,-0.0447,-0.0464,-0.0466,-0.0483,-0.046,-0.0451,-0.0422,-0.0387,-0.0354,-0.0301,-0.0251,-0.0251,-0.0223,-0.0183,-0.015,-0.0116,-0.0051,-0.0083,-0.0019,-0.0005,-0.0142,-0.014,-0.0139,-0.0137,0,0,-0.0451,-0.0484,-0.049,-0.0517,-0.0517,-0.0528,-0.0541,-0.0527,-0.0516,-0.0472,-0.0445,-0.0411,-0.0348,-0.0321,-0.0275,-0.0206,-0.0142,-0.015,-0.0143,-0.0082,0.004,0.0065,0.0083,-0.0089,-0.0087,-0.0085,0.0061,0,-0.0509,-0.0582,-0.0577,-0.0644,-0.068,-0.0644,-0.0659,-0.0633,-0.059,-0.0549,-0.0466,-0.0427,-0.0385,-0.0357,-0.0283,-0.0178,-0.0105,-0.0185,0.0053,0.0059,0.0096,0.01,0.0079,0.0209,0.0075,0.0077,0.0079,0,-0.0573,-0.0614,-0.0693,-0.0735,-0.0744,-0.077,-0.0764,-0.0767,-0.0688,-0.0648,-0.0568,-0.0487,-0.0398,-0.0351,-0.016,-0.0207,-0.009,-0.0002,0.0007,0.0082,0.0112,0.0223,0.024,0.0103,0.0101,0.01,0.0098,0,-0.0628,-0.0696,-0.0763,-0.0779,-0.0814,-0.083,-0.0838,-0.079,-0.0782,-0.0692,-0.0657,-0.0525,-0.046,-0.0292,-0.0117,-0.0124,0.0108,0.0125,0.026,0.0262,0.0318,0.0321,0.0283,0.0283,0.0283,0.0283,0.0282,0,-0.0697,-0.075,-0.0793,-0.0831,-0.0896,-0.089,-0.0921,-0.09,-0.085,-0.0829,-0.0703,-0.0645,-0.0434,-0.0276,-0.0114,0.0113,0.012,0.0267,0.0313,0.0278,0.0276,0.0248,0.0242,0.0288,0.0287,0.0286,0.0285,0,-0.0753,-0.0781,-0.0863,-0.0913,-0.0929,-0.0975,-0.0998,-0.1005,-0.0948,-0.0915,-0.0886,-0.0721,-0.0515,-0.0298,-0.0027,0.011,0.0324,0.0407,0.0335,0.0369,0.0418,0.0405,0.0574,0.0577,0.0579,0.058,0.0582,0,-0.0791,-0.0837,-0.0927,-0.0975,-0.1002,-0.1056,-0.1086,-0.1062,-0.106,-0.0956,-0.0938,-0.0737,-0.0578,-0.0186,0.0092,0.0394,0.0392,0.0544,0.053,0.0426,0.0454,0.0437,0.0422,0.0556,0.0557,0.0557,0.0558,0,-0.0856,-0.0885,-0.0951,-0.1052,-0.1109,-0.1167,-0.12,-0.1216,-0.1167,-0.1107,-0.0986,-0.0845,-0.0472,-0.0139,0.0239,0.0412,0.049,0.0572,0.0522,0.0473,0.0418,0.0441,0.0425,0.0566,0.0565,0.0565,0.0564,0.0564,-0.0895,-0.0958,-0.1039,-0.113,-0.1199,-0.1259,-0.1291,-0.1285,-0.1264,-0.1145,-0.102,-0.0765,-0.0462,0.0091,0.0353,0.0599,0.0592,0.0667,0.066,0.0654,0.0614,0.0565,0.0732,0.0732,0.0732,0.0732,0.0732,0,-0.0943,-0.1011,-0.1107,-0.1214,-0.129,-0.1306,-0.1348,-0.1331,-0.1283,-0.1126,-0.0963,-0.0597,-0.0221,0.0097,0.0495,0.0721,0.07,0.0755,0.0685,0.0677,0.0669,0.0626,0.075,0.075,0.0751,0.0751,0,0,-0.097,-0.1068,-0.1121,-0.1259,-0.1327,-0.1385,-0.14,-0.1337,-0.1218,-0.104,-0.0836,-0.0576,-0.0193,0.009,0.037,0.0577,0.0567,0.0596,0.0561,0.0438,0.0428,0.0603,0.0526,0,0,0,0,0]}],[{"header":{"parameterUnit":"m.s-1","parameterCategory":2,"la1":30.2991,"la2":30.254,"lo1":-89.0895,"lo2":-89.0444,"dy":0.0017,"dx":0.0017,"nx":28,"ny":28,"refTime":"2025-03-05T03:00:00:Z","depth":"4","parameterNumber":2,"parameterNumberName":"U-component_of_CURRENTS"},"data":[0,0,0,0,0,0,0,0,0,0,0,0,0,0,0,0,0,0,0,0,0,0,0,0,0,0,0,0,0,0,0,0,0,0,0,0,0,0,0,0,0,0,0,0,0,0,0,0,0,0,0,0,0,0,0,0,0,0,-0.1917,-0.1919,0,-0.203,-0.2031,-0.2032,-0.208,-0.208,-0.208,-0.208,-0.2156,-0.2158,-0.216,0,0,0,0,0,0,0,0,0,0,0,0,0,-0.177,-0.1772,-0.1917,-0.1919,-0.192,-0.203,-0.2031,-0.2032,-0.208,-0.208,-0.208,-0.208,-0.2155,-0.2158,-0.216,0,0,0,0,0,0,0,0,0,0,0,0,0,-0.1851,-0.1772,-0.1917,-0.1958,-0.1963,-0.2029,-0.2031,-0.2033,-0.208,-0.208,-0.208,-0.2079,-0.2154,-0.2157,-0.2161,-0.2182,0,0,-0.217,-0.2172,0,0,0,0,0,0,0,0,-0.1847,-0.1857,-0.1951,-0.1956,-0.1961,-0.2042,-0.2007,-0.2081,-0.208,-0.2034,-0.208,-0.2079,-0.2115,-0.2122,-0.2142,-0.2186,-0.2189,-0.217,-0.2172,-0.2174,-0.2175,0,0,0,0,0,0,0,-0.1841,-0.1852,-0.196,-0.1952,-0.1959,-0.198,-0.1991,-0.2022,-0.2072,-0.2038,-0.2042,-0.2057,-0.2118,-0.2138,-0.2144,-0.219,-0.217,-0.2173,-0.2175,-0.2176,-0.2271,-0.2271,0,0,0,0,0,0,-0.1829,-0.1847,-0.1957,-0.1964,-0.1904,-0.1983,-0.1995,-0.2015,-0.2073,-0.2082,-0.2057,-0.2059,-0.2133,-0.214,-0.2146,-0.2208,-0.2174,-0.2177,-0.2178,-0.227,-0.2271,-0.2272,0,0,0,0,0,0,-0.1826,-0.1838,-0.1952,-0.1909,-0.1925,-0.1985,-0.2007,-0.2017,-0.2066,-0.2088,-0.2096,-0.2099,-0.2133,-0.2142,-0.2202,-0.221,-0.2178,-0.2181,-0.2269,-0.227,-0.2271,-0.2309,0,0,0,0,0,0,-0.1821,-0.1836,-0.1862,-0.1908,-0.1927,-0.2011,-0.2008,-0.202,-0.2074,-0.2079,-0.2126,-0.2131,-0.2134,-0.2197,-0.2205,-0.2213,-0.2183,-0.2269,-0.227,-0.2271,-0.2307,-0.2311,-0.2315,0,0,0,0,0,-0.1815,-0.1847,-0.1863,-0.1877,-0.1955,-0.2013,-0.2026,-0.2066,-0.2077,-0.2108,-0.214,-0.2131,-0.2208,-0.2202,-0.221,-0.2219,-0.2268,-0.2269,-0.2271,-0.2306,-0.2311,-0.2315,0,0,0,0,0,0,-0.1798,-0.1856,-0.1874,-0.1923,-0.1974,-0.2022,-0.206,-0.2085,-0.2138,-0.2147,-0.216,-0.2169,-0.2217,-0.2218,-0.221,-0.2247,-0.2228,-0.2232,-0.2251,-0.2256,-0.226,-0.225,-0.2186,0,0,0,0,0,-0.1806,-0.1845,-0.1899,-0.1942,-0.1969,-0.2021,-0.2055,-0.2084,-0.2129,-0.2153,-0.2189,-0.2212,-0.2225,-0.2244,-0.2265,-0.2303,-0.2295,-0.2306,-0.231,-0.2313,-0.231,-0.2329,-0.2335,-0.2276,-0.2276,-0.2276,0,0,-0.1812,-0.1849,-0.1874,-0.1942,-0.1984,-0.2032,-0.2042,-0.2104,-0.2142,-0.2152,-0.2227,-0.224,-0.2241,-0.2275,-0.2294,-0.2282,-0.2323,-0.2315,-0.2318,-0.2313,-0.2332,-0.2337,-0.2342,-0.2277,-0.2277,-0.2277,0,0,-0.1833,-0.1878,-0.1915,-0.1961,-0.203,-0.2063,-0.2087,-0.2157,-0.2188,-0.2259,-0.2257,-0.2279,-0.2335,-0.232,-0.2317,-0.2356,-0.2347,-0.2363,-0.2375,-0.2395,-0.24,-0.2404,-0.2389,-0.2392,-0.236,-0.236,-0.236,0,-0.1841,-0.189,-0.1937,-0.1983,-0.2022,-0.2078,-0.2124,-0.2167,-0.2249,-0.2265,-0.229,-0.234,-0.2345,-0.2345,-0.2353,-0.2363,-0.2371,-0.2359,-0.2401,-0.2405,-0.2409,-0.2392,-0.2395,-0.2362,-0.2362,-0.2362,-0.2362,0,-0.1876,-0.193,-0.1959,-0.2031,-0.2081,-0.2133,-0.2191,-0.2245,-0.2292,-0.232,-0.2364,-0.2383,-0.2401,-0.24,-0.2393,-0.2407,-0.2402,-0.2408,-0.2389,-0.2417,-0.2397,-0.2399,-0.2365,-0.2365,-0.2364,-0.2363,0,0,-0.1849,-0.1961,-0.1973,-0.2012,-0.2109,-0.2147,-0.2214,-0.227,-0.2302,-0.2371,-0.2406,-0.2419,-0.2429,-0.2425,-0.2417,-0.2429,-0.2453,-0.2436,-0.2436,-0.2421,-0.2486,-0.2307,-0.2292,-0.2485,-0.2485,-0.2486,-0.2457,0,-0.1863,-0.1944,-0.2,-0.208,-0.2124,-0.2192,-0.2244,-0.23,-0.2353,-0.2407,-0.2412,-0.245,-0.2437,-0.2454,-0.2463,-0.2464,-0.2463,-0.2459,-0.2461,-0.2459,-0.2298,-0.229,-0.2489,-0.2458,-0.2458,-0.2459,-0.2459,0,-0.1868,-0.1922,-0.2001,-0.2093,-0.2119,-0.2177,-0.2256,-0.2311,-0.2377,-0.2417,-0.2451,-0.2477,-0.2488,-0.2493,-0.2497,-0.2506,-0.2495,-0.2492,-0.2491,-0.231,-0.2284,-0.2428,-0.2462,-0.2462,-0.2462,-0.2461,-0.2461,0,-0.1802,-0.1916,-0.1975,-0.2012,-0.2129,-0.2171,-0.2232,-0.2309,-0.2346,-0.2428,-0.2464,-0.2495,-0.2519,-0.253,-0.2515,-0.2526,-0.2522,-0.2531,-0.2351,-0.2338,-0.2495,-0.249,-0.2532,-0.2532,-0.2532,-0.2532,-0.2532,0,-0.1772,-0.1822,-0.1956,-0.1986,-0.2046,-0.2143,-0.2205,-0.2266,-0.2352,-0.2377,-0.2463,-0.2478,-0.254,-0.2544,-0.2531,-0.2426,-0.2529,-0.2334,-0.2315,-0.2508,-0.2506,-0.2495,-0.2491,-0.2531,-0.2531,-0.2531,-0.2531,0,-0.1686,-0.1781,-0.1852,-0.198,-0.202,-0.2063,-0.2183,-0.2213,-0.2317,-0.236,-0.2389,-0.2474,-0.2464,-0.2487,-0.2492,-0.241,-0.2355,-0.2295,-0.2477,-0.2472,-0.2154,-0.2153,-0.208,-0.2074,-0.2068,-0.2063,-0.2059,0,-0.1646,-0.1679,-0.1822,-0.1857,-0.192,-0.2003,-0.2046,-0.2173,-0.2202,-0.2323,-0.2319,-0.2367,-0.2394,-0.2247,-0.2298,-0.2232,-0.2209,-0.2165,-0.2167,-0.2118,-0.2108,-0.2115,-0.2121,-0.2051,-0.2049,-0.2048,-0.2046,0,-0.1557,-0.1627,-0.168,-0.1753,-0.1816,-0.1871,-0.1948,-0.1957,-0.2083,-0.2201,-0.218,-0.2164,-0.2141,-0.2122,-0.2078,-0.2041,-0.2188,-0.2106,-0.2118,-0.2119,-0.2081,-0.2078,-0.2091,-0.2027,-0.2029,-0.2031,-0.2032,0,-0.1486,-0.1499,-0.1578,-0.1619,-0.1693,-0.1708,-0.1774,-0.1803,-0.1852,-0.1994,-0.1978,-0.2033,-0.2118,-0.202,-0.1987,-0.1923,-0.1892,-0.1835,-0.1861,-0.1883,-0.1828,-0.1752,-0.156,0,0,0,0,0,-0.1404,-0.1398,-0.143,-0.1474,-0.154,-0.158,-0.1685,-0.1756,-0.1884,-0.1812,-0.189,-0.186,-0.1804,-0.1841,-0.1727,-0.1881,-0.1895,-0.174,-0.1844,-0.1918,-0.1941,-0.1893,0,0,0,0,0,0,-0.1348,-0.1379,-0.138,-0.1335,-0.1333,-0.1391,-0.1451,-0.1547,-0.1521,-0.1658,-0.1636,-0.1735,-0.1707,-0.183,-0.1684,-0.1689,-0.1712,-0.1782,-0.1776,-0.1906,-0.1926,-0.1944,-0.1903,0,0,0,0,0]},{"header":{"parameterUnit":"m.s-1","parameterCategory":2,"la1":30.2991,"la2":30.254,"lo1":-89.0895,"lo2":-89.0444,"dy":0.0017,"dx":0.0017,"nx":28,"ny":28,"refTime":"2025-03-05T03:00:00:Z","depth":"4","parameterNumber":3,"parameterNumberName":"V-component_of_CURRENTS"},"data":[0,0,0,0,0,0,0,0,0,0,0,0,0,0,0,0,0,0,0,0,0,0,0,0,0,0,0,0,0,0,0,0,0,0,0,0,0,0,0,0,0,0,0,0,0,0,0,0,0,0,0,0,0,0,0,0,0,0,-0.0152,-0.0152,0,-0.0106,-0.0106,-0.0105,-0.0059,-0.0059,-0.0058,-0.0057,0.0025,0.0027,0.0028,0,0,0,0,0,0,0,0,0,0,0,0,0,-0.0171,-0.0171,-0.0152,-0.0152,-0.0151,-0.0106,-0.0106,-0.0105,-0.0059,-0.0059,-0.0058,-0.0057,0.0024,0.0026,0.0028,0,0,0,0,0,0,0,0,0,0,0,0,0,-0.0148,-0.0171,-0.0152,-0.0123,-0.012,-0.0107,-0.0106,-0.0105,-0.0059,-0.0058,-0.0058,-0.0057,0.0024,0.0026,0.0029,0.0027,0,0,0.0036,0.0037,0,0,0,0,0,0,0,0,-0.0149,-0.0147,-0.0128,-0.0125,-0.0122,-0.0088,-0.0082,-0.0059,-0.006,-0.0082,-0.0057,-0.0056,-0.0011,-0.0005,0.0002,0.0031,0.0035,0.0037,0.0038,0.0039,0.004,0,0,0,0,0,0,0,-0.0151,-0.0148,-0.0133,-0.0128,-0.0124,-0.0103,-0.0099,-0.0078,-0.005,-0.008,-0.0077,-0.0073,-0.0008,-0.0001,0.0004,0.0036,0.0037,0.0039,0.004,0.0041,0.0009,0.0006,0,0,0,0,0,0,-0.016,-0.015,-0.0135,-0.0132,-0.0134,-0.0103,-0.0099,-0.0099,-0.0051,-0.0043,-0.0074,-0.0071,-0.0005,0.0001,0.0008,-0.0028,0.0039,0.0042,0.0043,0.0011,0.0008,0.0005,0,0,0,0,0,0,-0.0161,-0.016,-0.0137,-0.014,-0.0136,-0.0104,-0.0105,-0.0099,-0.0091,-0.0047,-0.0038,-0.0072,-0.0004,0.0004,0.0009,-0.0023,0.0043,0.0045,0.0014,0.001,0.0007,-0.0075,0,0,0,0,0,0,-0.0162,-0.016,-0.0165,-0.0141,-0.0136,-0.0141,-0.0106,-0.0099,-0.009,-0.0086,-0.0043,-0.0034,-0.0003,0.0005,0.0012,-0.0018,0.0047,0.0017,0.0012,0.0008,-0.0069,-0.0081,-0.0091,0,0,0,0,0,-0.0163,-0.0176,-0.0166,-0.0164,-0.0144,-0.0142,-0.0138,-0.0111,-0.0091,-0.0098,-0.0074,-0.0035,-0.0019,0.0005,0.0014,-0.0016,0.0019,0.0013,0.0008,-0.0064,-0.0079,-0.0091,0,0,0,0,0,0,-0.0187,-0.0172,-0.0161,-0.0168,-0.0161,-0.0134,-0.0136,-0.0118,-0.0104,-0.0098,-0.0053,-0.0044,-0.0058,-0.0031,-0.0005,-0.0044,0.0001,-0.0003,-0.0057,-0.007,-0.0081,-0.0077,0.0049,0,0,0,0,0,-0.0197,-0.0202,-0.0185,-0.0193,-0.019,-0.0164,-0.0159,-0.0144,-0.0127,-0.0119,-0.0091,-0.0073,-0.0075,-0.0066,-0.0058,-0.0067,0.0003,-0.0088,-0.0099,-0.0108,-0.0103,-0.0014,-0.0015,-0.0012,-0.0012,-0.0012,0,0,-0.0208,-0.0201,-0.0203,-0.0198,-0.0187,-0.0203,-0.0159,-0.0159,-0.0176,-0.0113,-0.0125,-0.0107,-0.0089,-0.0108,-0.0112,-0.0085,-0.0078,-0.0114,-0.0122,-0.0112,-0.0019,-0.0019,-0.0018,-0.0016,-0.0015,-0.0014,0,0,-0.0241,-0.0228,-0.0247,-0.0248,-0.024,-0.0231,-0.0235,-0.0216,-0.021,-0.0221,-0.0192,-0.0191,-0.018,-0.0176,-0.0174,-0.0239,-0.0141,-0.0246,-0.0286,-0.0201,-0.0199,-0.0196,-0.0119,-0.0108,-0.0246,-0.0246,-0.0246,0,-0.0256,-0.0278,-0.0253,-0.0276,-0.0285,-0.025,-0.0281,-0.0276,-0.026,-0.0256,-0.0239,-0.0227,-0.0217,-0.0233,-0.0269,-0.0261,-0.0188,-0.0234,-0.021,-0.0206,-0.0201,-0.0122,-0.0109,-0.025,-0.025,-0.0249,-0.0249,0,-0.0304,-0.0326,-0.0338,-0.0359,-0.0367,-0.0386,-0.038,-0.0383,-0.037,-0.0352,-0.0356,-0.0333,-0.0318,-0.0333,-0.0324,-0.0311,-0.0261,-0.0232,-0.0165,-0.0205,-0.0121,-0.0106,-0.0257,-0.0255,-0.0254,-0.0253,0,0,-0.0329,-0.0366,-0.0373,-0.04,-0.0412,-0.0427,-0.0458,-0.0468,-0.0472,-0.0453,-0.0448,-0.0468,-0.0423,-0.0419,-0.0397,-0.0339,-0.0269,-0.0279,-0.0272,-0.0182,-0.0066,-0.009,-0.0075,-0.0213,-0.0211,-0.021,-0.0021,0,-0.0377,-0.0443,-0.0447,-0.0514,-0.0547,-0.0534,-0.0566,-0.0566,-0.0547,-0.0531,-0.0493,-0.0481,-0.0465,-0.0451,-0.0396,-0.03,-0.0232,-0.0323,-0.0058,-0.005,-0.0049,-0.006,-0.0203,-0.001,-0.0006,-0.0004,-0.0002,0,-0.0425,-0.0464,-0.054,-0.0593,-0.0605,-0.0639,-0.0662,-0.0682,-0.0649,-0.0627,-0.0586,-0.053,-0.0478,-0.0444,-0.0271,-0.0318,-0.0205,-0.0118,-0.0108,-0.0087,-0.0047,0.004,0.0026,0.0024,0.0022,0.002,0.0018,0,-0.0459,-0.053,-0.0595,-0.0614,-0.0665,-0.0695,-0.0718,-0.0708,-0.0717,-0.0669,-0.0644,-0.0555,-0.0503,-0.0351,-0.0201,-0.021,0.002,0.0037,0.0127,0.0128,0.0135,0.013,0.0184,0.0184,0.0183,0.0183,0.0182,0,-0.0505,-0.0559,-0.0619,-0.0653,-0.0726,-0.074,-0.0789,-0.079,-0.0773,-0.0767,-0.0688,-0.0641,-0.0468,-0.0324,-0.0181,0.0011,0.0047,0.0126,0.0176,0.009,0.0078,0.0146,0.0139,0.019,0.0188,0.0187,0.0185,0,-0.0533,-0.0572,-0.0652,-0.0721,-0.0747,-0.0797,-0.0849,-0.0868,-0.0844,-0.0826,-0.0805,-0.068,-0.0491,-0.0313,-0.0059,0.0031,0.0221,0.0285,0.0177,0.0217,0.0272,0.0258,0.0415,0.0416,0.0417,0.0417,0.0418,0,-0.0553,-0.0596,-0.07,-0.0751,-0.0789,-0.0858,-0.0898,-0.0908,-0.0913,-0.0841,-0.0822,-0.0651,-0.0548,-0.0202,-0.0029,0.0253,0.0279,0.0375,0.0313,0.0263,0.0297,0.0282,0.0267,0.0419,0.0419,0.0419,0.0419,0,-0.0587,-0.0626,-0.0689,-0.0793,-0.086,-0.0926,-0.0974,-0.0982,-0.0965,-0.0942,-0.0802,-0.0632,-0.0426,-0.0189,0.0021,0.0217,0.0306,0.0382,0.0382,0.0325,0.0269,0.0299,0.0284,0.0421,0.0421,0.0421,0.0421,0,-0.0605,-0.0657,-0.0739,-0.0826,-0.0912,-0.0965,-0.0993,-0.0975,-0.0968,-0.0879,-0.0825,-0.0607,-0.0478,-0.0205,-0.0007,0.0172,0.0211,0.0255,0.0262,0.0262,0.0137,0.0039,0.0171,0,0,0,0,0,-0.062,-0.0676,-0.0763,-0.0859,-0.094,-0.0982,-0.1027,-0.1035,-0.1011,-0.0913,-0.0867,-0.0667,-0.0369,-0.0236,-0.0056,-0.0016,0.022,0.0196,0.0269,0.0434,0.0431,0.0304,0,0,0,0,0,0,-0.0631,-0.0715,-0.076,-0.0859,-0.092,-0.0998,-0.1026,-0.1013,-0.0947,-0.0894,-0.0726,-0.0636,-0.0342,-0.0463,-0.0052,-0.0001,0.0065,0.0338,0.0342,0.0435,0.0433,0.0431,0.03,0,0,0,0,0]}]]